Wind_Speed
31 32 35 37 40 42 43 45 47 50 53 56 60 65 69 72 76 78 81 83 86 87 88 89 89 90 90 90 90 90 90 90 91 92 92 92 93 93 94 95 97 99 102 105 107 108 109 108 106 103 100 97 96 97 96 96 97 96 95 94 92 90 90 90 88 86 84 83 82 81 82 82 81 80 81 81 79 78 76 74 73 73 72 68 66 64 62 62
30 31 33 34 36 38 40 42 44 46 48 50 53 56 60 64 68 72 76 79 81 84 86 87 88 89 90 90 90 91 91 92 93 93 93 93 94 94 94 95 95 96 98 100 102 105 107 108 109 108 107 104 101 100 98 98 98 98 98 96 95 94 94 92 89 87 86 85 83 84 85 85 84 83 84 85 83 81 79 77 76 75 74 70 67 65 64 65
27 30 32 33 35 36 37 39 41 43 45 47 49 51 53 56 59 63 67 71 75 79 81 84 86 87 88 89 90 90 91 92 93 94 94 94 95 95 96 96 96 96 97 97 98 100 103 106 107 108 109 110 109 106 103 100 99 99 99 97 97 97 97 94 90 89 88 87 85 86 87 87 86 86 87 87 86 85 83 80 78 78 75 71 67 67 69 71
24 26 29 31 33 35 36 37 39 41 42 44 46 48 50 51 54 56 59 63 67 71 74 77 80 82 85 86 88 89 90 92 93 94 95 95 96 97 97 98 97 97 98 98 98 98 99 101 104 106 107 109 110 111 111 108 104 102 99 98 99 99 98 96 92 90 90 90 89 88 89 89 88 89 90 90 89 88 87 83 80 79 77 73 70 71 75 75
20 23 26 28 30 32 34 35 37 39 41 42 44 45 47 49 51 53 55 57 60 62 65 68 71 74 77 81 83 85 87 90 92 93 94 94 96 97 98 99 99 99 99 99 99 99 99 100 101 103 104 107 108 110 112 112 109 108 106 104 103 100 98 97 94 92 92 93 92 91 92 91 90 91 93 92 91 90 90 86 82 82 80 76 74 77 78 76
15 18 21 24 27 29 31 33 35 37 39 41 43 44 46 47 49 50 52 54 56 57 58 60 62 65 68 72 76 79 81 85 88 90 91 93 94 96 97 98 99 100 101 101 101 101 100 100 100 101 102 104 105 107 109 109 109 111 112 112 110 105 101 99 96 93 94 95 95 95 94 93 94 94 95 94 92 91 91 89 87 85 83 80 78 79 80 78
13 14 16 18 21 24 27 29 32 34 37 39 40 42 44 46 47 49 50 52 53 54 54 55 57 59 61 64 68 70 74 77 80 83 86 88 91 93 95 96 97 98 99 100 101 101 101 101 101 101 102 103 103 104 105 105 107 111 113 114 113 109 105 103 100 96 97 98 99 98 97 96 96 96 96 95 94 93 93 93 91 88 86 84 81 81 82 81
14 14 14 15 16 18 20 23 26 29 32 35 37 39 41 43 45 46 48 50 51 51 52 53 54 56 58 61 63 65 66 69 72 75 78 81 84 87 90 92 94 95 97 98 99 100 100 101 101 102 102 103 103 103 103 103 105 108 110 112 111 108 106 107 106 104 102 102 101 100 99 98 98 98 98 98 97 96 96 96 94 91 88 86 84 82 82 82
17 15 14 14 14 15 16 17 19 22 25 28 31 34 37 39 41 43 45 47 48 49 50 51 53 55 57 59 61 61 62 64 66 68 70 73 76 79 82 85 88 90 92 93 94 96 97 98 100 101 102 103 103 104 104 104 104 105 106 108 108 106 106 108 111 111 109 107 105 103 100 99 99 99 99 101 101 99 98 98 97 95 92 89 87 84 82 83
21 18 16 15 14 14 14 15 16 17 19 21 23 26 29 32 35 37 40 42 44 46 47 49 51 53 54 56 58 59 60 61 63 65 66 68 70 72 74 76 79 82 84 87 89 90 92 94 96 99 100 102 103 104 105 105 105 104 105 106 107 106 106 108 111 112 112 111 110 107 104 101 100 101 102 104 103 101 100 101 101 100 97 94 91 88 86 86
25 22 20 17 15 14 14 14 15 15 16 18 19 20 22 24 26 28 31 34 36 39 42 44 47 49 51 52 54 56 58 59 61 63 64 65 66 67 68 70 71 73 75 78 80 82 84 87 90 93 96 99 101 103 104 105 106 105 105 106 107 107 107 108 110 111 111 111 111 110 109 107 106 105 106 106 104 101 102 103 104 104 103 100 96 94 92 92
29 26 24 21 19 17 16 15 15 15 15 16 17 18 19 20 21 22 24 26 28 30 33 35 38 41 44 46 48 51 53 56 58 59 61 62 62 63 65 66 67 68 69 70 71 73 75 78 81 85 89 93 96 98 101 104 106 106 106 106 107 109 110 110 110 110 110 110 110 109 109 110 112 112 111 109 107 105 105 105 106 107 107 105 103 101 100 98
32 30 28 25 22 20 19 18 17 16 16 15 15 15 15 16 17 18 19 20 22 23 25 27 29 31 34 37 39 42 45 48 51 53 55 57 58 60 61 62 63 64 65 66 66 67 67 69 72 75 80 84 88 93 96 99 102 104 106 107 108 109 111 112 111 109 110 109 108 107 107 109 112 113 113 113 111 109 108 108 108 109 109 109 109 107 105 102
33 32 31 29 27 24 22 21 20 20 19 17 16 15 14 13 13 12 13 14 15 16 18 19 20 22 23 26 27 29 32 35 38 42 45 49 51 53 55 57 58 59 60 61 62 63 63 64 65 68 72 75 79 83 88 92 96 100 103 105 107 109 110 111 110 109 109 108 107 106 106 108 110 111 111 111 111 110 109 110 112 112 113 113 114 113 110 106
35 34 33 31 30 29 26 25 23 22 21 20 20 19 18 17 16 14 13 12 12 11 11 12 13 13 14 16 18 19 20 22 25 28 32 36 39 42 45 47 49 52 54 55 57 58 59 60 61 63 66 69 72 75 79 83 89 93 97 100 103 106 108 109 109 109 108 108 107 107 106 109 110 108 108 107 106 107 108 109 112 114 116 117 117 116 113 109
37 35 34 33 32 31 30 28 26 25 24 23 23 23 23 22 21 20 18 17 15 13 12 11 12 12 11 11 13 13 14 15 17 19 21 24 26 29 32 34 38 41 44 46 49 51 52 54 55 57 60 63 67 70 72 76 80 85 89 93 97 101 104 106 108 108 108 108 108 108 108 110 110 109 107 104 102 103 106 109 111 114 116 116 116 114 111 109
40 39 37 36 35 34 32 31 30 28 27 26 26 26 26 25 25 23 22 20 19 19 18 17 16 15 13 12 11 10 10 12 13 15 16 18 19 22 24 26 29 32 35 37 40 42 44 46 49 51 53 56 60 64 67 70 74 78 81 84 88 93 98 101 103 104 105 106 109 110 110 111 112 111 109 106 104 105 107 109 111 113 113 112 111 109 108 108
46 44 42 41 39 38 36 34 33 31 30 29 28 28 28 28 27 27 27 27 26 24 21 17 14 13 14 15 13 12 13 15 15 14 15 16 17 18 19 21 23 25 28 30 32 35 37 39 42 44 47 49 52 55 60 64 68 72 76 79 81 84 88 93 97 99 100 103 107 110 111 112 113 112 112 111 110 110 110 111 111 110 108 107 106 106 106 108
50 49 48 47 45 44 42 40 37 35 34 32 32 31 31 30 30 30 30 29 26 23 20 20 19 18 19 20 20 21 21 20 19 19 18 17 17 18 18 18 19 20 22 24 26 28 30 33 35 38 40 42 45 48 52 57 61 65 69 73 76 78 81 84 88 91 94 98 102 106 109 111 112 114 115 114 114 113 112 111 110 108 106 104 104 104 105 107
51 51 51 50 49 49 48 46 44 42 39 38 36 34 32 31 31 30 29 27 27 26 27 27 27 26 26 25 25 25 22 21 22 21 19 16 16 16 16 17 18 19 20 21 21 23 24 26 28 31 33 36 38 42 46 49 54 58 61 65 70 73 76 78 80 83 86 90 95 100 105 108 111 113 115 115 113 112 111 110 110 109 108 106 104 104 105 106
51 51 51 51 51 51 50 50 49 48 46 44 42 40 39 37 35 33 30 30 30 29 29 29 29 29 28 27 26 24 24 24 23 21 18 16 15 15 17 19 19 19 19 20 20 20 21 22 23 25 27 29 32 35 39 43 47 51 55 59 62 66 70 73 76 78 80 83 87 92 98 104 108 110 111 111 111 111 111 110 110 111 111 110 108 107 107 107
50 50 51 51 51 51 50 50 50 50 49 49 48 48 47 45 43 41 38 36 34 32 31 31 30 30 28 27 26 25 24 23 20 19 18 17 18 20 22 22 22 21 20 20 21 21 21 20 20 21 22 23 26 28 31 35 40 44 49 53 56 59 63 67 70 73 76 78 81 85 90 97 102 104 104 105 107 110 112 112 112 112 113 113 112 111 109 109
49 49 50 50 50 50 50 50 50 50 50 50 50 50 49 49 48 47 46 44 42 40 39 36 35 33 31 29 27 26 25 23 23 24 23 23 23 24 24 24 24 24 23 23 21 20 20 21 22 22 20 20 21 23 25 28 32 37 41 46 50 54 57 61 64 68 71 73 76 81 86 89 92 94 97 99 103 107 110 112 113 114 114 114 114 114 113 112
49 49 49 49 49 49 49 49 49 49 50 50 50 50 50 50 50 50 49 49 48 47 46 44 43 41 39 37 34 33 32 30 30 30 28 27 26 25 25 25 26 24 24 21 17 16 16 17 20 21 21 20 20 20 21 24 27 30 34 39 43 47 50 54 58 62 65 68 71 76 80 83 84 86 89 93 97 101 106 110 112 114 115 115 115 115 115 115
50 50 50 49 48 48 48 48 48 48 48 49 49 50 50 50 50 50 50 50 50 49 49 48 48 46 46 45 43 42 40 38 37 35 33 31 29 27 25 25 26 25 24 21 20 20 20 17 17 18 19 20 20 20 20 21 23 25 28 32 36 40 44 47 52 56 60 63 66 70 74 76 78 81 84 87 91 96 100 105 108 111 113 115 116 117 117 117
49 50 51 51 51 50 49 48 48 47 47 48 48 48 49 49 49 50 50 50 50 49 49 48 47 47 47 47 46 45 44 43 42 41 39 37 35 32 29 29 30 29 27 26 25 24 21 18 18 18 19 19 19 20 21 20 21 22 24 27 30 34 37 41 45 49 54 57 61 64 67 69 72 76 81 84 87 91 94 97 102 106 110 113 115 117 118 119
49 49 50 51 52 52 51 50 49 49 48 48 47 47 47 48 48 49 50 50 49 49 49 48 47 46 46 45 43 43 41 41 42 42 42 41 40 38 36 35 34 32 31 31 31 29 25 24 23 22 21 21 21 21 19 20 21 22 22 23 25 27 31 34 38 42 47 52 55 59 62 64 66 70 75 79 83 87 90 93 96 100 105 109 112 115 118 120
47 48 49 50 51 52 52 52 51 51 50 49 48 47 46 46 46 47 47 48 48 49 49 49 49 48 46 44 42 40 39 38 38 38 38 38 39 39 39 38 37 36 35 34 35 34 33 32 31 28 25 23 22 19 17 17 19 21 23 23 23 24 26 29 32 35 40 45 50 54 57 60 62 65 69 74 78 82 86 89 92 95 99 103 108 112 115 118
47 47 48 48 49 50 50 51 52 51 51 50 50 49 48 47 46 45 45 45 46 48 48 49 49 49 47 45 43 41 40 39 37 35 35 34 34 35 36 37 37 38 38 38 37 36 35 34 34 34 31 29 26 22 20 19 19 19 21 23 23 24 24 26 28 31 34 38 43 48 52 56 59 62 65 69 73 77 81 85 88 92 95 98 103 107 111 115
46 47 47 48 48 48 48 49 49 50 50 50 50 50 49 49 47 46 45 44 44 46 47 48 48 47 47 46 45 44 42 40 38 36 34 32 31 31 31 31 32 34 36 36 36 36 36 36 36 35 34 34 33 29 27 25 23 21 20 21 21 22 23 23 24 27 30 33 37 41 45 49 53 58 61 65 70 73 77 80 84 88 92 96 99 103 107 111
45 45 46 47 48 48 48 48 48 48 48 49 50 50 49 49 49 48 46 44 44 44 45 46 47 46 47 46 46 46 45 44 42 40 38 35 34 32 32 32 33 34 34 34 34 33 34 33 33 33 34 35 36 36 35 32 30 28 26 24 22 21 21 21 20 21 24 28 33 37 40 43 47 51 55 60 66 70 73 76 80 84 88 92 96 100 103 107
44 44 45 46 47 47 48 48 48 47 47 47 48 49 49 49 49 49 48 47 45 43 43 44 45 46 46 46 46 47 47 47 46 45 44 42 40 38 36 35 34 33 31 31 31 31 30 30 29 30 32 34 34 35 36 36 35 34 32 31 29 28 26 24 21 20 21 23 27 33 38 40 42 45 49 53 58 64 69 73 76 80 84 88 93 97 100 104
44 44 44 45 46 46 47 48 48 48 47 47 46 47 47 48 49 49 49 49 47 45 43 42 43 44 46 46 46 46 47 48 48 47 46 45 43 40 37 35 33 31 30 30 31 30 29 28 26 25 25 26 28 29 30 32 33 33 32 31 32 32 30 29 28 26 23 22 23 27 32 37 39 42 45 48 51 56 62 67 71 76 81 85 89 93 97 101
44 44 44 45 45 45 46 47 48 48 48 48 47 46 46 46 47 48 48 49 49 47 45 43 41 42 44 45 45 46 47 48 48 48 47 46 45 44 42 39 37 36 34 32 31 30 28 27 25 24 23 22 22 24 25 26 28 32 32 32 32 33 32 32 32 32 29 25 22 22 26 31 34 38 41 44 47 50 54 59 65 70 76 81 85 89 93 97
46 46 45 45 45 45 45 46 46 47 48 49 48 48 47 46 46 46 47 48 49 49 48 45 43 41 41 42 44 45 45 46 47 47 48 47 46 46 46 45 44 42 41 38 35 33 32 30 28 27 26 23 22 22 24 25 27 30 33 35 35 35 35 37 37 37 36 33 29 24 23 27 30 33 36 40 44 48 50 53 57 62 69 75 80 85 89 93
47 47 47 46 45 45 45 45 45 46 47 48 49 49 49 48 48 47 47 47 47 48 48 47 45 42 41 40 41 43 44 45 45 46 47 47 47 46 46 46 45 44 44 43 41 38 35 33 31 30 28 27 25 24 24 26 27 28 32 35 37 37 37 38 39 39 40 42 41 35 28 26 29 30 31 34 39 44 48 50 53 57 61 67 73 79 84 88
47 47 48 48 47 46 45 45 45 45 46 47 48 49 49 49 49 49 49 48 47 47 47 48 47 46 42 40 39 40 42 43 45 45 46 46 46 45 45 45 45 44 44 44 44 43 41 38 36 36 35 32 31 30 29 29 30 31 32 33 34 35 35 35 35 36 36 39 44 48 42 34 32 33 31 33 36 40 44 47 50 54 58 62 67 72 77 83
47 47 48 48 49 48 47 46 46 46 46 46 47 48 49 49 49 50 50 50 49 48 48 48 48 48 46 43 40 39 40 41 43 45 45 46 46 46 45 45 45 45 45 44 45 45 46 45 42 41 43 42 39 37 35 34 36 36 36 35 34 33 33 32 32 34 34 33 37 47 51 45 40 40 38 37 40 41 43 46 47 51 55 59 64 68 73 78
46 47 48 48 49 50 49 48 47 46 46 46 47 47 48 49 49 49 50 51 51 51 50 49 49 49 48 46 44 41 41 41 43 45 46 46 46 46 46 45 45 46 46 46 46 47 48 51 50 47 48 51 50 46 42 40 40 40 40 39 38 35 33 32 31 32 34 33 32 38 50 51 45 45 46 44 44 46 46 47 48 50 53 56 61 65 70 75
46 46 47 48 49 50 50 49 49 48 48 47 47 47 48 48 49 50 50 51 51 52 52 51 50 49 50 49 47 45 43 43 44 45 46 47 47 47 46 46 46 46 47 47 48 49 50 53 56 55 54 56 59 58 55 49 45 44 44 42 40 39 37 35 33 33 34 35 33 33 44 53 49 47 50 50 49 50 50 51 52 53 54 57 60 64 69 73
46 46 46 47 48 49 50 51 50 50 49 49 48 48 48 48 49 50 50 51 51 52 53 52 51 51 51 51 50 48 46 45 45 47 48 49 49 48 47 47 46 47 48 48 49 50 51 53 56 57 57 58 61 63 63 58 51 48 48 46 43 41 39 37 35 34 36 37 37 34 38 49 51 48 49 51 51 53 53 54 55 57 58 60 62 66 70 73
47 47 47 47 48 49 50 51 51 51 51 51 50 50 49 49 49 50 51 51 52 52 53 53 53 52 52 52 52 51 49 48 47 48 50 50 50 50 48 48 47 46 47 48 49 50 51 53 56 58 58 59 62 64 66 66 59 53 51 50 48 45 41 39 35 35 37 39 40 38 38 45 50 49 49 50 51 53 54 56 57 59 61 63 65 68 71 75
46 47 48 48 48 48 49 50 51 52 52 52 52 51 50 50 50 50 51 51 52 52 53 54 54 54 52 52 53 53 52 51 49 49 50 51 52 52 50 49 49 47 47 47 49 50 50 51 55 58 59 60 63 64 66 69 66 59 55 54 52 49 45 43 40 36 38 41 43 41 39 44 51 52 51 50 52 54 56 58 60 61 63 65 67 69 72 76
46 47 48 49 49 49 49 50 50 51 52 53 53 53 52 51 51 51 51 52 52 53 53 54 55 56 54 53 53 54 54 54 52 50 50 51 53 54 52 51 51 50 48 48 48 50 52 52 54 57 59 60 63 63 63 66 66 60 56 56 56 53 49 47 45 42 41 44 47 44 40 44 52 55 54 53 53 55 57 59 62 63 65 67 69 71 74 77
47 47 49 50 50 50 51 51 51 51 52 52 53 54 53 53 52 52 52 52 53 53 54 55 56 57 56 54 53 54 56 56 53 51 51 52 54 55 55 53 53 52 51 49 49 51 53 55 57 60 61 62 65 66 65 66 66 61 57 58 60 59 56 52 51 49 46 46 50 49 43 43 52 56 55 55 56 57 58 60 62 64 67 70 72 75 77 79
48 49 49 50 51 52 52 52 52 52 52 52 53 54 54 54 53 53 54 53 54 54 54 55 56 57 58 56 54 54 55 56 55 52 52 53 54 57 57 56 55 55 54 52 51 51 53 56 58 61 65 66 69 71 71 72 72 67 62 62 65 65 64 61 59 57 53 50 52 54 50 47 53 56 56 57 57 58 60 61 63 65 67 70 74 77 79 80
50 50 50 51 51 52 53 54 54 54 54 54 54 54 54 54 54 55 55 55 55 54 55 56 56 57 59 58 56 56 56 57 56 54 53 54 55 57 59 58 58 58 57 55 54 53 53 56 58 61 66 68 70 72 74 76 78 74 68 67 71 72 71 70 68 65 62 57 55 58 58 56 57 59 59 60 61 61 62 64 65 67 68 71 73 76 78 80
52 52 52 52 52 53 54 54 55 55 56 55 55 55 54 55 55 56 56 56 56 55 55 56 56 57 59 59 58 57 58 58 58 56 55 56 57 59 61 60 60 61 59 58 58 56 55 56 58 61 66 69 70 73 76 78 80 79 73 72 75 78 78 78 75 73 71 67 63 62 64 64 63 62 63 65 66 65 65 67 68 70 72 74 75 77 78 79
53 53 54 54 53 53 54 55 56 56 57 57 57 56 56 56 56 56 56 56 57 56 56 56 56 57 59 60 59 59 59 60 59 57 56 57 59 61 63 62 61 63 63 62 61 60 58 59 60 62 66 70 71 73 76 79 82 81 78 77 80 83 85 84 83 81 79 76 73 70 70 71 70 67 66 68 70 70 69 70 72 75 77 79 80 80 80 80
54 54 55 55 55 55 55 55 56 57 57 58 58 58 57 57 57 56 57 57 58 58 57 56 57 58 59 60 61 60 60 61 61 59 57 58 60 62 65 64 63 64 65 64 64 63 61 63 64 64 68 72 73 74 77 80 83 84 81 81 84 88 90 90 89 89 88 84 82 80 78 76 75 72 71 71 73 75 75 76 77 78 81 82 83 83 83 83
55 55 56 56 56 56 56 56 57 57 58 59 59 59 59 59 58 58 57 58 58 59 58 57 57 58 58 60 61 62 62 63 64 61 58 59 62 64 66 65 64 65 65 65 65 64 63 64 66 67 70 74 75 76 78 80 83 83 81 82 87 90 92 92 92 93 94 90 86 84 83 81 79 78 76 75 76 77 78 80 82 82 83 83 84 85 85 84
56 56 57 57 58 58 58 58 58 58 59 59 60 60 60 60 60 60 59 59 59 60 59 59 58 58 58 59 61 63 63 64 65 63 60 60 63 65 67 67 67 66 67 68 67 66 65 65 66 68 71 74 77 78 80 81 84 83 80 82 88 91 92 93 92 94 96 94 91 90 88 86 84 82 80 78 78 78 80 83 86 87 87 86 85 87 87 85
Wind_Direction
255 254 254 254 254 254 254 253 252 251 250 250 249 249 250 250 250 250 250 250 250 250 250 250 250 250 250 250 250 251 251 251 251 250 250 249 248 247 247 247 246 246 245 245 245 245 245 245 244 244 244 244 244 245 244 244 245 246 246 246 246 246 246 246 246 246 245 244 245 246 247 248 247 246 246 245 242 241 241 241 243 244 246 246 247 248 247 247
258 256 255 254 254 254 254 254 254 254 254 253 252 252 251 251 251 251 251 251 250 250 250 251 251 251 251 251 251 251 251 251 251 251 251 250 249 248 247 247 247 246 246 245 245 245 246 245 245 245 245 244 244 244 244 244 245 245 246 246 246 246 247 247 247 246 246 245 245 245 245 247 247 246 245 245 244 242 241 241 242 243 244 246 247 249 249 247
262 260 259 258 257 256 255 254 254 255 255 255 255 254 254 253 253 252 252 252 252 252 252 251 251 252 252 252 252 251 251 251 251 251 251 251 250 250 249 248 247 246 246 245 245 245 246 246 245 245 246 246 245 245 244 244 244 245 246 246 246 246 247 247 246 246 246 245 244 243 244 245 246 246 245 245 245 244 241 240 241 242 244 245 247 248 248 246
266 264 262 261 260 259 258 257 256 256 256 256 255 255 255 255 254 254 253 253 253 253 253 253 253 253 253 253 253 252 252 252 252 251 251 251 251 250 250 249 248 247 246 246 245 245 245 245 246 245 245 246 246 246 246 245 244 245 245 246 246 246 246 246 245 245 244 244 243 242 242 243 244 245 245 245 245 245 243 241 241 242 243 243 245 246 246 246
274 269 266 264 263 261 261 260 259 258 258 258 257 256 256 256 255 255 255 254 254 254 254 254 254 254 254 254 254 253 253 253 252 252 251 251 251 251 250 250 249 248 247 246 246 245 244 244 245 245 245 245 246 246 247 246 246 246 245 245 245 245 246 246 245 244 243 243 243 242 241 242 243 244 245 245 245 246 245 243 241 241 242 242 242 245 247 247
289 281 275 271 268 265 264 262 261 260 259 259 259 258 258 257 257 256 256 256 256 256 256 256 255 255 255 255 255 255 254 254 253 253 252 252 251 251 251 250 250 249 248 247 247 246 245 244 244 244 245 245 245 245 246 247 247 246 246 245 245 245 246 246 245 243 243 243 243 242 242 242 243 243 245 245 245 246 246 245 242 241 242 242 242 246 249 249
315 302 291 283 277 273 270 267 265 263 262 261 261 260 260 260 259 259 259 259 258 258 258 258 258 257 256 256 256 255 255 255 254 254 254 253 252 252 251 251 250 250 249 248 247 247 246 245 244 244 244 244 244 244 245 246 246 247 247 247 246 246 245 246 245 243 243 243 242 242 242 241 242 243 244 245 245 245 245 245 244 242 242 243 243 245 248 249
341 328 315 304 295 287 281 276 272 269 267 266 265 264 264 263 263 262 262 262 262 261 261 260 259 258 258 257 257 256 256 256 256 256 255 255 254 253 253 252 251 251 250 249 248 247 247 246 246 245 245 245 244 244 244 244 245 246 247 248 248 246 245 245 245 243 242 242 243 242 242 242 242 243 244 245 245 244 244 245 245 243 242 242 242 242 245 248
4 353 341 328 317 308 301 294 287 282 277 274 271 270 268 267 267 266 266 265 265 264 263 261 260 259 259 259 258 258 258 257 257 257 257 256 256 255 255 254 253 252 251 250 249 248 247 247 247 246 246 245 245 245 244 244 244 245 246 247 247 246 245 244 244 243 243 242 243 243 242 242 243 243 243 244 244 244 244 245 245 244 243 241 241 241 244 247
17 11 3 353 342 330 320 312 304 298 293 288 284 280 277 274 273 271 270 269 268 267 265 264 262 261 261 260 261 261 260 260 259 259 258 257 257 257 257 256 256 255 254 253 252 250 249 248 248 248 247 246 246 245 245 245 244 244 244 245 246 246 245 244 244 244 243 243 243 243 242 242 242 243 243 244 244 244 245 246 246 246 244 242 241 241 243 245
23 21 17 12 5 355 344 333 324 316 310 304 299 295 291 287 283 280 277 275 273 271 270 268 267 265 264 263 263 263 263 263 262 262 261 260 260 260 259 259 259 258 257 256 255 253 252 251 249 249 249 248 247 247 246 245 245 244 244 245 245 245 245 244 245 245 244 244 243 243 243 242 241 242 243 244 244 244 245 246 247 247 246 244 242 242 243 245
26 26 25 24 21 17 10 2 353 344 334 326 319 313 308 303 299 295 290 287 283 280 278 275 273 271 269 268 266 265 265 266 265 266 265 265 264 263 263 262 262 261 261 260 258 257 255 254 252 251 250 250 249 248 247 247 246 245 244 244 245 245 245 244 244 245 245 244 244 243 243 243 242 242 242 244 245 245 245 245 246 247 248 247 245 243 244 245
29 28 28 28 29 29 29 27 24 19 12 4 355 345 336 328 320 314 308 304 299 295 292 288 285 282 279 276 273 271 270 269 269 268 268 268 268 267 267 266 265 265 264 263 262 260 258 256 255 254 252 251 251 250 249 248 247 246 245 244 244 245 245 245 244 244 244 245 244 244 243 243 243 242 242 243 244 245 246 246 245 246 248 248 248 246 245 246
32 31 30 30 31 33 35 38 40 42 41 39 35 29 21 13 2 351 339 329 320 315 311 308 304 300 297 292 288 284 280 275 273 272 270 270 269 269 269 269 269 268 267 266 265 263 261 258 257 256 255 253 252 251 250 249 248 247 246 245 245 245 245 245 245 244 244 244 244 244 243 243 243 243 243 243 244 245 246 246 246 246 246 247 248 247 246 246
34 33 32 32 33 34 37 40 44 48 50 51 51 50 47 44 39 33 24 15 6 358 347 335 326 319 315 310 306 300 294 288 283 279 276 274 273 272 272 272 271 270 269 268 267 265 263 260 258 256 256 255 253 252 251 251 250 248 247 246 246 245 245 245 245 245 244 244 243 243 243 244 244 243 243 243 243 244 245 245 245 245 246 246 247 248 249 249
35 35 34 34 34 35 37 39 42 46 49 52 55 56 56 55 53 50 47 45 43 37 28 16 6 356 345 336 328 320 309 300 294 289 285 281 278 276 274 273 272 271 270 269 268 267 265 262 260 257 256 255 255 253 252 252 251 250 248 247 247 246 246 245 245 245 245 245 244 243 243 243 244 243 243 242 242 243 244 244 244 245 246 246 247 249 250 250
34 35 35 35 36 37 38 39 41 42 45 49 53 56 58 58 57 55 53 51 50 48 47 46 44 37 26 15 4 349 334 324 316 305 297 291 286 282 278 276 274 272 271 270 269 267 266 264 261 259 257 255 254 254 253 252 252 252 251 249 248 247 247 246 245 244 244 245 245 244 243 243 243 243 242 241 240 241 242 243 244 245 246 247 248 249 249 250
35 35 35 36 36 37 38 39 40 41 43 45 48 51 53 55 55 54 53 52 53 53 53 54 58 56 45 37 30 23 17 10 357 343 334 324 313 304 295 289 284 281 277 274 271 269 266 264 262 260 258 256 254 253 253 252 252 252 252 251 249 248 248 248 247 245 244 244 245 245 244 244 244 243 242 241 240 240 241 243 245 246 247 247 248 248 248 249
34 34 35 35 36 37 38 38 39 40 41 42 44 47 49 51 52 53 54 53 53 52 48 46 47 48 46 44 42 40 39 33 26 20 12 360 348 337 326 316 307 299 292 284 279 275 270 266 262 260 258 257 255 253 252 252 251 251 251 251 251 250 248 248 248 247 245 244 244 245 245 244 244 244 243 242 241 241 242 243 245 246 246 246 246 247 247 248
32 33 33 34 35 36 37 38 38 39 39 40 42 43 45 46 47 49 51 50 49 47 47 47 48 48 48 48 49 50 49 45 42 40 34 24 15 360 346 338 329 322 315 307 298 290 282 276 269 263 258 256 255 254 253 252 252 251 250 250 251 251 250 249 248 247 246 245 244 245 245 245 244 243 243 243 243 243 243 243 244 245 245 245 245 245 246 246
30 30 31 32 33 33 35 35 36 37 38 39 39 40 41 42 43 44 45 45 45 46 46 46 47 46 47 48 48 49 50 50 50 48 41 34 26 16 9 4 357 350 340 327 314 305 299 292 283 273 265 259 254 253 252 252 252 252 252 251 250 250 250 249 248 248 247 246 245 244 245 246 245 244 244 245 245 244 244 243 242 243 244 244 244 244 245 245
28 28 29 29 30 31 32 32 33 34 34 35 36 37 38 38 39 39 40 41 41 40 40 40 42 42 42 43 43 43 44 46 47 44 41 35 32 30 27 22 18 11 359 348 338 330 322 311 301 290 281 273 265 258 253 252 252 252 252 252 251 251 251 250 250 248 247 246 245 244 244 245 246 246 245 245 244 244 243 242 242 241 242 243 243 243 243 244
25 26 27 27 28 29 29 29 30 30 30 31 33 34 34 34 35 35 36 36 36 36 35 35 35 35 35 35 35 35 35 35 34 34 34 33 34 35 32 30 28 23 18 14 4 352 340 328 320 312 301 290 280 272 263 256 253 252 252 252 252 251 251 251 251 250 249 247 246 245 244 245 246 247 247 245 244 244 244 243 242 241 241 242 243 243 243 243
24 24 25 25 26 27 27 28 28 28 28 29 30 30 30 31 31 32 32 32 32 33 32 31 31 30 30 29 28 28 27 28 28 28 28 29 30 29 29 30 29 27 27 23 13 3 354 343 335 327 319 311 299 289 279 269 262 256 254 252 252 252 252 252 251 251 251 249 247 246 246 245 246 246 247 246 245 244 244 243 243 242 241 241 242 243 243 243
23 23 23 23 24 24 25 26 27 27 27 27 27 27 28 28 29 29 30 30 29 30 30 29 29 29 28 28 27 26 24 24 23 23 23 23 22 22 22 23 22 22 22 18 13 10 5 357 347 339 334 327 316 306 294 283 273 266 261 257 254 252 251 251 252 252 252 252 251 249 248 246 246 245 245 245 245 245 244 244 244 243 243 242 241 242 243 243
22 22 22 22 22 22 23 24 24 25 25 26 26 26 26 27 28 27 28 28 27 28 29 29 29 29 29 29 29 28 28 26 24 21 19 18 16 15 15 15 14 13 13 13 13 11 5 0 355 352 349 342 335 328 316 302 289 278 269 264 260 257 254 252 252 252 252 252 252 252 251 248 246 245 245 244 244 245 245 244 244 244 244 243 242 242 242 243
20 20 20 20 20 21 21 21 22 22 22 23 24 26 26 26 26 26 26 27 25 25 26 27 27 28 29 30 29 29 30 29 28 26 22 18 15 12 11 11 9 7 8 9 9 6 3 1 0 0 358 355 354 349 336 318 305 294 283 273 266 263 260 256 253 253 252 252 251 252 252 251 248 246 246 245 245 244 244 244 244 244 243 243 243 242 242 242
17 17 18 19 19 19 19 19 20 20 19 20 20 22 24 26 26 26 26 26 24 24 25 24 24 25 26 28 28 28 28 28 29 30 27 24 20 15 11 9 6 4 4 5 6 5 4 3 360 357 357 357 356 350 341 327 315 306 297 287 278 272 268 264 259 256 254 254 252 251 251 251 250 248 246 246 246 245 244 244 244 244 244 244 243 243 242 242
13 13 14 15 17 17 18 18 18 18 18 17 17 17 19 22 24 25 26 25 24 24 24 23 23 22 23 24 25 25 25 26 27 26 27 27 25 21 17 12 7 4 3 3 2 1 2 2 359 356 354 351 348 344 341 337 328 317 304 295 289 283 278 275 270 264 259 256 255 254 252 251 250 249 248 247 246 246 245 244 244 244 245 244 244 244 243 243
10 10 11 11 13 14 15 16 17 17 16 16 16 15 15 16 18 21 23 23 23 24 24 23 22 21 21 20 20 20 21 23 23 23 24 25 23 23 22 18 13 10 7 5 1 359 358 358 357 356 352 347 345 344 342 339 335 327 315 307 299 288 282 280 279 275 270 265 261 258 255 253 251 250 249 248 248 247 246 245 244 244 244 244 244 244 244 243
8 8 8 8 9 9 11 12 13 14 15 15 14 14 13 13 13 15 17 19 21 22 22 22 21 19 19 17 17 16 16 17 18 19 20 19 19 18 16 16 16 14 11 6 4 3 1 358 356 353 349 345 345 344 341 340 339 337 332 325 315 302 289 278 271 272 275 275 271 266 261 257 254 252 250 249 249 248 248 247 246 245 244 244 244 244 244 244
7 7 7 7 6 6 6 7 8 10 12 12 13 12 12 11 11 10 11 13 17 19 20 20 19 18 17 16 15 14 13 13 13 14 14 14 15 16 15 15 15 15 12 8 6 6 4 0 357 354 350 349 346 342 340 340 339 339 338 336 331 325 315 300 285 274 272 275 276 274 269 264 260 256 253 251 250 249 249 248 247 247 246 245 245 245 245 245
5 5 5 5 5 5 4 4 4 5 7 8 9 10 10 10 9 8 7 8 10 13 16 17 17 16 15 15 15 14 13 12 11 11 12 12 12 13 14 15 14 13 13 12 10 8 6 4 359 353 351 352 348 343 341 339 336 334 335 334 332 328 324 317 309 299 286 280 278 276 273 269 266 264 259 255 252 251 250 249 248 248 248 248 247 246 246 245
4 4 3 3 3 3 3 2 2 1 2 3 4 5 6 7 7 6 5 4 4 6 9 13 14 14 13 13 13 13 13 11 10 10 10 10 9 9 9 9 9 10 11 13 13 10 7 6 2 355 350 344 340 341 340 335 331 329 328 326 324 324 323 321 317 311 301 289 282 280 279 274 269 268 267 263 259 256 254 252 250 248 248 249 248 248 247 247
3 2 2 1 1 1 1 1 1 0 359 359 359 360 1 2 2 2 2 2 1 1 2 5 9 11 11 10 10 11 11 9 9 9 9 9 9 8 7 6 6 6 6 7 8 9 8 7 3 360 354 344 336 336 337 336 333 330 327 325 325 326 326 323 322 320 315 306 296 289 288 283 275 270 271 270 267 263 259 257 255 252 250 249 249 249 249 248
1 1 0 0 359 359 358 359 359 359 358 357 357 356 357 357 357 358 358 358 359 358 358 358 1 4 7 8 7 7 7 6 6 7 7 8 9 9 8 7 6 5 5 4 3 4 5 5 3 359 356 352 345 338 336 339 339 335 333 332 330 328 326 325 324 324 323 318 309 300 294 288 282 277 275 275 273 271 267 262 259 257 255 252 250 249 249 249
358 358 358 358 358 357 356 356 356 356 357 356 356 355 355 354 354 354 354 355 356 356 355 354 354 356 360 3 4 4 3 3 2 3 4 5 6 8 9 9 7 5 4 4 2 360 359 2 3 1 357 355 353 349 345 345 344 342 340 338 337 333 328 325 322 320 320 320 315 308 303 298 292 286 282 280 277 274 272 268 264 262 261 258 255 252 250 250
355 355 356 356 355 355 355 354 354 353 353 354 354 353 353 353 352 351 351 351 352 353 353 352 350 350 352 355 359 0 1 0 359 359 360 1 3 5 8 9 8 7 5 4 2 360 358 358 0 2 0 357 355 354 353 352 352 350 346 342 340 339 334 327 321 316 315 315 315 311 307 305 303 296 290 288 285 280 276 272 267 265 264 262 261 258 255 252
352 352 353 354 353 353 353 353 352 351 351 351 351 351 351 351 350 349 349 349 350 350 350 350 349 347 346 348 352 356 358 358 357 356 356 357 359 1 4 6 8 7 6 4 3 1 359 358 358 1 2 0 357 354 353 355 357 356 352 347 343 340 336 331 324 318 313 310 310 310 306 303 303 300 295 293 291 288 284 280 274 269 265 264 263 262 260 257
347 348 350 351 351 351 351 351 351 350 349 348 348 348 348 349 348 347 347 347 348 348 348 349 348 346 344 344 345 350 354 354 354 353 353 353 355 357 0 3 5 7 5 4 3 1 360 360 360 360 1 1 360 357 354 354 358 360 357 353 348 342 337 332 327 319 314 309 306 305 303 301 300 299 296 295 292 290 288 285 281 276 271 268 265 264 262 260
343 344 345 346 347 348 348 348 348 348 348 347 346 346 346 346 346 345 344 345 346 347 347 347 347 346 344 342 342 344 348 350 351 350 350 350 350 353 356 359 2 4 4 2 1 0 359 359 360 359 360 1 1 358 354 352 355 0 360 356 352 348 341 335 329 321 314 309 303 300 300 301 299 296 294 292 290 288 287 284 282 280 277 273 270 268 265 263
340 341 341 342 343 344 344 345 346 346 346 345 345 344 344 344 343 343 342 342 343 344 345 346 346 345 344 342 340 341 343 346 348 348 347 347 346 348 352 355 358 1 3 1 359 358 357 357 358 358 359 1 1 359 355 352 353 358 0 357 353 350 345 338 332 324 318 312 306 301 299 300 298 295 291 289 287 285 283 281 279 278 277 276 274 272 270 268
338 338 338 339 340 340 341 341 342 343 344 344 343 343 342 341 341 341 340 340 341 342 343 344 344 345 344 343 340 340 341 343 345 346 345 345 344 344 347 351 354 357 360 359 358 356 354 354 357 357 357 359 359 359 356 352 351 355 358 356 352 348 345 339 333 328 322 318 311 306 304 302 299 296 293 291 289 286 284 281 279 277 276 275 273 272 271 270
336 336 336 337 337 338 338 338 339 339 340 341 341 341 340 339 339 338 338 338 339 340 341 341 342 344 345 344 341 339 340 342 344 344 344 344 342 341 344 347 350 353 356 357 356 354 352 352 355 355 355 357 357 356 355 351 349 350 353 353 349 345 343 339 335 330 326 323 317 311 308 306 302 299 298 297 294 292 290 287 285 282 280 277 275 273 271 270
333 334 334 334 335 336 336 336 337 337 337 337 338 339 339 338 337 336 336 337 337 337 339 340 340 341 344 345 342 339 340 341 343 343 343 343 342 340 340 344 347 349 352 354 355 353 351 350 353 353 352 355 356 354 353 351 347 348 351 351 348 344 341 339 336 332 328 326 322 315 309 307 305 303 302 302 300 298 295 292 290 288 285 282 279 276 274 272
329 330 331 331 332 333 334 334 335 335 335 334 334 335 336 336 336 334 334 334 335 335 336 338 339 339 341 344 343 340 340 341 342 343 342 343 343 340 338 341 345 347 348 350 352 352 350 349 352 352 350 352 355 353 352 350 347 348 351 351 348 345 342 340 337 334 330 327 325 321 314 309 307 306 304 303 303 300 298 295 292 290 288 285 283 280 277 274
326 327 328 328 329 330 331 332 333 333 334 333 332 332 332 333 334 333 332 332 333 334 334 335 337 338 339 342 343 341 340 340 341 343 342 343 344 342 338 340 344 346 346 348 349 350 350 349 351 351 349 351 353 352 350 348 346 347 350 352 350 346 344 342 340 336 332 328 327 325 321 317 314 311 308 306 305 303 301 299 296 293 290 287 284 282 279 277
323 324 325 325 326 327 328 329 330 331 331 331 331 330 329 329 331 331 331 330 330 332 333 333 334 336 337 340 341 340 339 339 340 341 343 343 343 342 339 340 344 345 346 347 348 348 348 348 350 351 349 350 352 350 348 347 345 346 349 350 349 347 345 344 341 338 335 331 328 326 325 323 320 317 314 310 308 306 304 302 300 298 296 293 289 286 284 281
320 321 322 323 324 325 325 326 327 328 329 329 329 329 328 327 327 328 329 329 328 329 330 331 332 333 335 337 339 339 338 338 338 340 342 343 342 341 340 340 343 345 345 347 348 348 348 347 349 352 350 349 350 349 347 346 344 344 347 349 348 346 345 344 343 340 337 334 331 329 328 327 325 321 317 313 311 310 309 307 306 304 302 299 296 294 291 287
317 318 319 320 321 322 323 324 325 326 326 327 327 327 327 326 325 325 326 327 327 327 328 330 330 331 332 335 337 337 336 336 337 338 340 341 341 340 340 340 342 344 345 347 348 348 348 347 349 352 351 349 349 348 347 345 343 344 346 348 347 346 345 344 343 342 339 336 335 332 330 329 326 323 320 317 316 315 314 312 310 308 305 302 301 298 295 292
314 315 316 317 318 319 320 322 323 323 324 324 325 325 325 325 324 323 322 323 325 325 326 328 329 329 330 333 335 336 335 336 336 336 337 339 339 338 338 339 341 343 344 346 347 347 348 348 349 351 352 350 348 347 346 344 343 342 345 346 345 344 344 343 343 341 339 336 335 333 331 329 327 325 323 321 319 317 315 314 312 309 307 305 303 301 298 295
311 313 314 314 315 316 318 319 321 321 322 322 323 323 323 324 323 322 321 321 322 323 325 327 328 329 329 331 333 334 334 335 336 336 336 337 337 336 337 339 340 341 343 345 346 347 347 348 349 351 352 350 347 346 345 344 342 342 344 345 344 343 343 342 341 340 338 335 335 334 332 330 327 325 323 320 319 317 316 316 315 312 310 308 306 304 301 298
Height
10593 10593 10593 10593 10594 10594 10595 10597 10597 10597 10598 10599 10600 10601 10602 10603 10604 10606 10607 10609 10611 10612 10614 10616 10618 10620 10623 10625 10628 10630 10633 10634 10634 10636 10641 10643 10645 10649 10651 10654 10658 10661 10665 10668 10672 10674 10678 10683 10686 10688 10690 10693 10696 10699 10704 10706 10708 10712 10715 10721 10728 10731 10733 10738 10744 10749 10754 10756 10760 10764 10762 10761 10763 10769 10771 10770 10774 10776 10779 10781 10781 10781 10782 10788 10791 10794 10801 10801
10589 10589 10589 10589 10589 10590 10591 10592 10592 10592 10593 10594 10595 10595 10596 10597 10598 10599 10600 10602 10603 10604 10606 10608 10610 10612 10615 10617 10619 10622 10624 10625 10625 10628 10631 10633 10636 10638 10641 10645 10647 10650 10654 10658 10662 10664 10668 10672 10676 10679 10680 10684 10687 10688 10694 10698 10701 10703 10706 10713 10718 10719 10722 10731 10739 10743 10746 10751 10756 10755 10753 10752 10754 10761 10762 10759 10765 10769 10771 10773 10774 10774 10777 10783 10788 10792 10795 10795
10586 10586 10586 10586 10586 10586 10587 10587 10588 10587 10588 10588 10589 10590 10591 10592 10592 10593 10594 10595 10596 10597 10598 10600 10602 10604 10607 10609 10611 10614 10616 10616 10617 10619 10621 10623 10626 10628 10630 10634 10637 10639 10643 10647 10651 10654 10657 10660 10665 10669 10671 10672 10676 10680 10683 10688 10693 10694 10699 10704 10706 10709 10713 10723 10731 10736 10739 10742 10747 10748 10745 10744 10747 10751 10751 10752 10755 10759 10762 10765 10768 10768 10773 10781 10785 10786 10783 10783
10583 10583 10582 10582 10582 10582 10583 10583 10583 10583 10583 10583 10584 10584 10585 10586 10586 10587 10588 10588 10588 10589 10590 10593 10595 10597 10599 10600 10602 10604 10606 10607 10607 10609 10611 10614 10616 10617 10619 10621 10625 10628 10631 10635 10640 10644 10647 10650 10653 10657 10661 10662 10666 10670 10669 10677 10685 10685 10692 10694 10693 10699 10704 10712 10723 10727 10729 10729 10735 10740 10736 10736 10741 10740 10739 10744 10746 10747 10751 10758 10764 10764 10768 10777 10778 10774 10770 10774
10580 10580 10579 10579 10579 10579 10579 10579 10579 10579 10579 10579 10579 10579 10579 10580 10580 10580 10581 10581 10581 10582 10584 10586 10588 10590 10592 10592 10593 10594 10597 10597 10596 10598 10601 10603 10605 10606 10608 10609 10613 10616 10620 10623 10628 10632 10636 10640 10642 10645 10649 10652 10656 10658 10658 10668 10676 10675 10681 10681 10680 10689 10695 10702 10713 10717 10718 10719 10724 10729 10728 10731 10734 10730 10729 10735 10738 10739 10742 10751 10759 10757 10760 10768 10769 10763 10761 10769
10578 10577 10576 10576 10576 10575 10575 10576 10575 10575 10574 10574 10574 10574 10574 10574 10575 10575 10575 10575 10575 10576 10578 10581 10582 10584 10584 10584 10584 10584 10587 10587 10586 10588 10591 10593 10594 10596 10597 10598 10601 10604 10608 10612 10616 10621 10625 10630 10632 10635 10638 10642 10647 10648 10650 10659 10662 10661 10665 10666 10669 10682 10689 10693 10702 10707 10708 10708 10712 10716 10720 10724 10724 10722 10723 10726 10732 10734 10735 10740 10747 10748 10752 10759 10762 10758 10757 10763
10577 10576 10574 10573 10573 10572 10572 10572 10572 10571 10570 10570 10570 10570 10570 10570 10570 10570 10570 10570 10571 10572 10573 10575 10576 10577 10576 10576 10575 10576 10577 10577 10577 10579 10581 10583 10584 10585 10586 10587 10590 10592 10596 10600 10605 10610 10614 10619 10622 10626 10627 10631 10637 10638 10643 10648 10646 10647 10651 10654 10663 10677 10684 10685 10691 10695 10695 10695 10698 10704 10710 10713 10714 10715 10716 10719 10724 10726 10726 10727 10734 10742 10747 10750 10754 10753 10750 10752
10576 10575 10573 10572 10571 10570 10569 10569 10568 10568 10567 10567 10567 10567 10566 10566 10566 10566 10566 10566 10567 10568 10569 10570 10570 10569 10569 10568 10567 10568 10569 10569 10570 10571 10572 10574 10574 10575 10576 10577 10579 10581 10586 10589 10595 10600 10604 10609 10612 10616 10617 10621 10626 10627 10634 10637 10635 10638 10642 10646 10656 10668 10674 10674 10675 10676 10679 10683 10686 10694 10700 10704 10706 10708 10709 10711 10712 10714 10717 10718 10723 10731 10737 10740 10742 10744 10744 10744
10576 10574 10573 10571 10570 10569 10568 10567 10566 10565 10564 10564 10564 10563 10563 10563 10562 10562 10562 10562 10562 10563 10563 10563 10563 10562 10562 10561 10561 10562 10563 10563 10564 10564 10565 10565 10565 10566 10567 10568 10570 10572 10576 10579 10585 10590 10595 10600 10602 10606 10608 10612 10615 10617 10623 10625 10628 10633 10634 10637 10643 10651 10657 10658 10657 10658 10666 10672 10676 10683 10690 10696 10698 10698 10699 10698 10699 10705 10710 10711 10712 10717 10724 10729 10732 10736 10739 10738
10577 10575 10572 10571 10569 10568 10566 10565 10564 10563 10563 10562 10561 10561 10560 10560 10559 10558 10558 10557 10557 10557 10557 10557 10556 10556 10556 10556 10556 10557 10557 10557 10557 10557 10557 10557 10558 10559 10560 10561 10562 10565 10568 10571 10576 10581 10586 10590 10593 10597 10599 10602 10605 10608 10611 10613 10620 10625 10625 10626 10628 10635 10640 10643 10643 10645 10654 10661 10667 10673 10680 10687 10688 10687 10688 10684 10689 10699 10703 10702 10702 10706 10710 10717 10723 10728 10730 10729
10578 10575 10573 10571 10569 10567 10566 10564 10563 10562 10561 10560 10559 10559 10558 10557 10556 10555 10554 10553 10553 10552 10552 10552 10551 10551 10552 10552 10553 10552 10551 10551 10551 10550 10551 10551 10553 10554 10554 10555 10557 10558 10560 10564 10568 10572 10577 10581 10585 10587 10588 10591 10594 10597 10600 10601 10606 10612 10616 10616 10617 10621 10625 10628 10630 10636 10645 10648 10655 10664 10670 10675 10674 10675 10675 10673 10683 10693 10693 10692 10693 10695 10697 10704 10713 10717 10718 10719
10580 10577 10575 10572 10570 10568 10566 10564 10563 10562 10560 10559 10558 10557 10556 10555 10554 10553 10552 10551 10550 10549 10548 10547 10547 10547 10547 10547 10548 10548 10547 10547 10546 10546 10546 10546 10547 10548 10549 10550 10551 10553 10554 10557 10560 10564 10568 10571 10574 10577 10579 10581 10582 10586 10588 10589 10593 10599 10605 10605 10605 10607 10608 10613 10620 10629 10633 10634 10646 10655 10658 10659 10658 10661 10665 10668 10676 10681 10681 10682 10684 10685 10686 10691 10698 10702 10705 10707
10583 10580 10577 10574 10571 10569 10567 10565 10563 10562 10560 10559 10558 10556 10555 10554 10553 10552 10550 10549 10548 10547 10546 10545 10545 10544 10543 10543 10543 10544 10543 10543 10542 10542 10541 10541 10541 10542 10543 10544 10545 10547 10548 10550 10552 10555 10559 10562 10564 10566 10568 10569 10571 10573 10575 10579 10582 10584 10590 10592 10595 10595 10595 10601 10610 10618 10619 10624 10638 10644 10644 10642 10641 10648 10656 10662 10666 10669 10672 10672 10675 10676 10676 10677 10679 10685 10691 10697
10587 10584 10581 10578 10575 10572 10569 10567 10564 10562 10560 10559 10557 10555 10554 10553 10552 10550 10549 10548 10546 10545 10544 10543 10542 10541 10540 10539 10539 10539 10538 10538 10537 10537 10536 10535 10536 10536 10537 10538 10539 10540 10540 10542 10543 10545 10548 10551 10554 10555 10556 10557 10559 10561 10563 10567 10568 10570 10575 10580 10584 10582 10584 10592 10599 10606 10609 10618 10628 10628 10629 10625 10626 10637 10644 10653 10658 10660 10662 10659 10661 10662 10663 10664 10664 10669 10680 10693
10590 10588 10585 10582 10579 10576 10573 10570 10567 10564 10562 10559 10557 10555 10554 10552 10551 10549 10547 10546 10545 10544 10542 10541 10540 10538 10537 10535 10535 10534 10533 10532 10532 10531 10531 10531 10531 10531 10532 10532 10532 10532 10532 10533 10533 10535 10537 10540 10543 10545 10546 10546 10549 10551 10552 10554 10554 10557 10562 10567 10571 10570 10576 10583 10586 10593 10599 10608 10613 10613 10617 10611 10614 10627 10633 10644 10650 10648 10647 10644 10645 10645 10647 10651 10655 10664 10674 10686
10593 10591 10588 10586 10583 10580 10577 10574 10571 10567 10564 10562 10559 10557 10554 10552 10551 10549 10547 10546 10545 10543 10541 10539 10538 10537 10535 10534 10532 10531 10530 10529 10528 10527 10526 10526 10526 10526 10526 10525 10525 10524 10524 10524 10524 10526 10528 10529 10532 10535 10537 10537 10538 10541 10542 10544 10543 10546 10550 10555 10559 10559 10565 10570 10573 10583 10590 10595 10597 10599 10604 10598 10601 10614 10620 10632 10637 10632 10629 10628 10628 10629 10635 10644 10654 10663 10668 10671
10597 10594 10591 10589 10586 10583 10581 10578 10574 10571 10568 10565 10562 10559 10557 10554 10552 10550 10548 10546 10544 10542 10541 10540 10538 10536 10535 10533 10532 10530 10529 10527 10526 10525 10524 10523 10522 10521 10521 10520 10520 10519 10519 10519 10519 10519 10520 10521 10523 10524 10526 10528 10529 10531 10532 10534 10535 10536 10539 10543 10548 10550 10553 10557 10563 10575 10580 10582 10581 10583 10589 10586 10588 10600 10608 10616 10618 10614 10612 10612 10615 10622 10632 10642 10650 10657 10657 10656
10600 10597 10594 10592 10589 10586 10583 10580 10577 10574 10571 10568 10565 10562 10560 10557 10555 10552 10549 10547 10545 10544 10542 10541 10539 10537 10535 10533 10531 10530 10528 10527 10526 10524 10522 10521 10520 10519 10519 10518 10517 10516 10515 10515 10514 10514 10514 10515 10515 10516 10517 10518 10520 10522 10522 10524 10525 10526 10528 10531 10536 10540 10543 10546 10551 10561 10568 10569 10566 10568 10575 10576 10578 10587 10592 10595 10596 10597 10600 10605 10613 10623 10632 10637 10641 10644 10645 10644
10604 10601 10598 10595 10592 10589 10586 10583 10580 10577 10574 10571 10568 10565 10563 10561 10558 10555 10553 10551 10549 10546 10543 10541 10539 10537 10535 10533 10531 10530 10529 10528 10526 10524 10522 10521 10519 10517 10516 10515 10515 10514 10512 10511 10511 10510 10509 10509 10510 10510 10510 10511 10512 10513 10514 10515 10516 10517 10519 10521 10525 10529 10534 10536 10540 10547 10554 10557 10557 10557 10560 10563 10567 10569 10570 10575 10583 10592 10601 10608 10614 10618 10623 10626 10628 10630 10631 10631
10607 10604 10601 10598 10595 10592 10589 10586 10583 10580 10577 10574 10571 10569 10566 10564 10561 10558 10557 10554 10551 10548 10545 10543 10541 10539 10537 10536 10534 10532 10531 10529 10526 10525 10523 10521 10519 10517 10515 10514 10512 10511 10509 10508 10507 10506 10505 10505 10505 10505 10505 10506 10506 10506 10507 10507 10508 10509 10510 10512 10515 10518 10522 10526 10529 10534 10538 10544 10547 10547 10547 10548 10550 10550 10554 10567 10582 10592 10600 10605 10606 10606 10608 10611 10614 10615 10617 10619
10610 10607 10604 10601 10598 10594 10591 10589 10586 10583 10580 10577 10575 10572 10569 10566 10563 10561 10559 10556 10553 10551 10548 10546 10544 10542 10540 10538 10536 10535 10532 10530 10528 10526 10524 10521 10519 10516 10514 10512 10511 10509 10508 10506 10504 10503 10502 10501 10500 10500 10500 10501 10501 10501 10501 10502 10502 10502 10503 10505 10507 10509 10511 10515 10518 10521 10525 10530 10535 10537 10536 10532 10530 10537 10552 10569 10580 10584 10587 10591 10592 10592 10593 10595 10600 10602 10604 10606
10612 10609 10606 10603 10600 10597 10594 10591 10589 10586 10583 10580 10576 10573 10570 10568 10566 10564 10561 10558 10556 10553 10550 10548 10546 10544 10542 10540 10538 10536 10533 10531 10529 10526 10524 10521 10518 10516 10514 10512 10510 10509 10506 10504 10501 10499 10498 10498 10497 10496 10496 10496 10496 10496 10497 10497 10496 10496 10497 10498 10500 10501 10502 10505 10507 10510 10514 10518 10522 10525 10523 10518 10521 10535 10553 10564 10566 10566 10569 10573 10576 10579 10580 10581 10585 10589 10592 10594
10615 10612 10609 10606 10602 10599 10596 10594 10591 10588 10584 10581 10577 10574 10572 10570 10567 10565 10562 10560 10558 10555 10552 10550 10547 10545 10543 10541 10539 10536 10534 10531 10529 10526 10524 10521 10519 10517 10514 10512 10510 10508 10505 10503 10501 10499 10497 10496 10494 10492 10492 10492 10492 10492 10492 10492 10492 10491 10491 10491 10492 10494 10495 10497 10498 10500 10503 10507 10510 10511 10509 10511 10521 10534 10543 10549 10552 10552 10554 10556 10560 10564 10568 10570 10571 10575 10579 10582
10617 10614 10611 10608 10605 10602 10599 10596 10593 10589 10586 10582 10579 10577 10574 10571 10568 10566 10563 10561 10558 10556 10553 10551 10548 10545 10543 10540 10538 10536 10533 10531 10528 10527 10525 10522 10521 10518 10515 10512 10510 10508 10506 10504 10502 10499 10497 10495 10492 10490 10488 10488 10488 10488 10487 10487 10487 10487 10487 10487 10487 10488 10489 10490 10491 10492 10494 10497 10499 10500 10500 10508 10520 10528 10532 10535 10538 10538 10538 10540 10545 10550 10555 10559 10561 10563 10566 10569
10619 10616 10613 10610 10607 10605 10601 10598 10595 10592 10589 10585 10582 10578 10575 10572 10569 10566 10564 10561 10559 10557 10555 10552 10549 10546 10543 10540 10538 10535 10533 10531 10529 10527 10525 10523 10521 10519 10516 10513 10510 10508 10506 10504 10500 10497 10495 10493 10491 10488 10486 10485 10484 10483 10483 10483 10483 10483 10482 10482 10482 10483 10484 10484 10485 10486 10487 10489 10490 10491 10494 10504 10514 10517 10518 10520 10521 10522 10524 10529 10534 10538 10543 10547 10551 10553 10554 10556
10621 10618 10615 10612 10609 10606 10603 10600 10597 10594 10591 10587 10584 10580 10577 10574 10571 10568 10565 10562 10560 10558 10556 10553 10551 10549 10545 10542 10540 10537 10535 10533 10530 10527 10525 10523 10521 10518 10516 10513 10511 10509 10506 10503 10500 10497 10495 10492 10489 10487 10485 10483 10481 10479 10478 10478 10478 10478 10478 10478 10478 10478 10479 10480 10480 10480 10481 10482 10483 10483 10486 10495 10503 10504 10505 10507 10508 10510 10514 10518 10522 10525 10529 10532 10536 10540 10543 10544
10623 10620 10617 10613 10610 10607 10604 10601 10598 10595 10592 10589 10586 10582 10579 10576 10572 10569 10566 10563 10561 10559 10556 10555 10553 10550 10548 10545 10544 10541 10539 10537 10532 10529 10526 10523 10520 10518 10516 10513 10511 10509 10506 10503 10500 10498 10494 10491 10488 10486 10484 10481 10479 10477 10476 10474 10473 10473 10473 10473 10474 10474 10474 10475 10476 10475 10475 10475 10475 10476 10478 10484 10491 10494 10495 10495 10497 10500 10502 10504 10507 10510 10513 10515 10519 10524 10528 10531
10625 10622 10619 10616 10612 10609 10605 10602 10599 10596 10593 10590 10587 10584 10581 10578 10575 10572 10569 10566 10564 10560 10557 10555 10552 10550 10548 10547 10546 10545 10543 10540 10537 10534 10530 10526 10523 10520 10517 10514 10512 10509 10506 10503 10501 10498 10494 10491 10488 10485 10483 10481 10479 10477 10475 10473 10471 10469 10468 10468 10469 10470 10470 10470 10471 10471 10469 10468 10468 10469 10470 10474 10479 10482 10484 10485 10486 10489 10491 10493 10496 10498 10500 10503 10506 10509 10512 10515
10626 10623 10620 10617 10614 10611 10607 10604 10600 10597 10594 10591 10588 10586 10583 10580 10578 10575 10572 10569 10566 10562 10559 10556 10552 10550 10549 10548 10547 10546 10544 10542 10540 10537 10534 10530 10527 10523 10519 10516 10513 10509 10506 10503 10501 10498 10495 10492 10489 10485 10482 10480 10477 10475 10472 10470 10468 10466 10464 10464 10464 10465 10466 10466 10466 10466 10465 10464 10462 10462 10463 10466 10469 10472 10474 10474 10474 10476 10479 10482 10485 10487 10488 10490 10492 10495 10497 10500
10626 10623 10621 10618 10615 10612 10610 10606 10603 10599 10596 10593 10591 10588 10584 10582 10580 10577 10574 10572 10568 10565 10562 10558 10555 10553 10551 10548 10547 10545 10544 10542 10541 10539 10536 10533 10530 10526 10523 10520 10516 10511 10507 10504 10501 10498 10494 10491 10488 10485 10483 10480 10476 10472 10469 10467 10465 10463 10461 10460 10459 10460 10461 10462 10462 10461 10460 10459 10457 10456 10457 10459 10461 10463 10464 10465 10464 10464 10467 10470 10472 10473 10475 10476 10478 10479 10481 10484
10627 10624 10621 10619 10616 10613 10611 10608 10605 10602 10599 10595 10592 10589 10586 10583 10581 10579 10577 10574 10570 10567 10564 10561 10558 10555 10552 10549 10546 10543 10541 10540 10539 10537 10535 10533 10530 10527 10523 10519 10515 10511 10508 10505 10503 10499 10495 10492 10489 10486 10482 10477 10473 10469 10467 10464 10462 10459 10457 10455 10454 10454 10455 10457 10459 10459 10457 10455 10452 10451 10451 10452 10454 10454 10455 10455 10454 10454 10456 10459 10460 10461 10462 10464 10464 10465 10467 10469
10627 10625 10622 10619 10617 10614 10611 10609 10607 10604 10601 10598 10594 10591 10588 10586 10583 10580 10578 10576 10573 10570 10567 10563 10560 10557 10554 10551 10547 10544 10540 10538 10535 10533 10531 10529 10526 10523 10520 10517 10514 10512 10510 10507 10503 10500 10496 10493 10490 10485 10481 10476 10472 10469 10466 10463 10460 10457 10455 10453 10451 10450 10449 10450 10452 10454 10454 10452 10450 10447 10445 10446 10447 10446 10446 10446 10445 10444 10445 10448 10450 10451 10452 10453 10453 10454 10455 10456
10628 10625 10623 10620 10617 10614 10612 10609 10607 10604 10602 10599 10596 10593 10590 10587 10584 10582 10579 10577 10575 10573 10570 10566 10563 10559 10555 10552 10549 10545 10541 10538 10535 10533 10530 10528 10526 10524 10522 10519 10517 10514 10511 10507 10503 10500 10497 10494 10490 10487 10483 10480 10476 10472 10468 10465 10461 10459 10456 10454 10452 10450 10448 10446 10445 10446 10447 10448 10447 10444 10441 10440 10440 10439 10438 10438 10437 10436 10435 10438 10441 10441 10441 10442 10442 10444 10445 10445
10629 10626 10623 10620 10617 10615 10612 10609 10606 10604 10602 10599 10597 10594 10592 10589 10586 10583 10581 10578 10576 10574 10571 10569 10565 10561 10557 10554 10551 10547 10543 10540 10537 10534 10531 10529 10525 10522 10519 10517 10514 10511 10508 10506 10503 10500 10497 10494 10490 10487 10484 10481 10478 10475 10472 10469 10465 10461 10458 10455 10453 10450 10447 10445 10443 10441 10440 10442 10443 10442 10439 10436 10436 10434 10431 10430 10429 10429 10428 10428 10430 10432 10431 10430 10431 10432 10433 10434
10629 10626 10624 10621 10618 10615 10612 10609 10607 10604 10601 10599 10597 10595 10592 10590 10587 10584 10581 10579 10576 10574 10571 10569 10567 10564 10560 10556 10552 10549 10546 10543 10539 10535 10532 10529 10525 10521 10517 10513 10509 10506 10503 10501 10499 10497 10494 10491 10488 10485 10482 10479 10477 10475 10472 10469 10466 10462 10458 10455 10452 10449 10446 10443 10440 10437 10434 10433 10434 10437 10437 10433 10431 10430 10427 10424 10422 10421 10421 10421 10420 10421 10420 10419 10419 10420 10420 10421
10629 10626 10624 10621 10619 10616 10613 10610 10607 10604 10602 10599 10596 10594 10592 10589 10587 10584 10581 10579 10576 10574 10571 10569 10567 10565 10562 10558 10554 10551 10547 10544 10540 10536 10532 10529 10526 10523 10519 10514 10510 10506 10501 10498 10494 10492 10491 10489 10486 10482 10479 10476 10473 10471 10470 10467 10465 10462 10459 10456 10453 10450 10447 10443 10439 10435 10432 10428 10424 10426 10430 10430 10427 10425 10424 10420 10417 10414 10413 10413 10412 10410 10409 10408 10407 10407 10407 10407
10629 10627 10624 10621 10619 10616 10613 10610 10607 10605 10602 10599 10596 10594 10591 10589 10586 10583 10581 10578 10576 10573 10571 10568 10566 10564 10562 10560 10556 10552 10548 10545 10541 10537 10533 10529 10526 10524 10521 10517 10512 10508 10503 10498 10493 10488 10486 10484 10482 10478 10474 10472 10470 10467 10466 10464 10462 10460 10458 10455 10453 10450 10447 10444 10440 10436 10433 10428 10420 10414 10417 10422 10421 10419 10419 10417 10413 10409 10406 10405 10404 10402 10399 10397 10395 10395 10394 10394
10630 10627 10624 10622 10619 10616 10614 10611 10608 10605 10602 10599 10596 10593 10591 10588 10585 10583 10580 10577 10574 10572 10569 10567 10564 10562 10560 10558 10556 10553 10549 10545 10541 10537 10533 10529 10525 10522 10519 10516 10512 10508 10503 10499 10493 10488 10482 10479 10477 10475 10470 10466 10464 10463 10461 10460 10459 10456 10454 10451 10449 10446 10443 10441 10439 10436 10433 10431 10424 10411 10405 10410 10413 10409 10410 10410 10406 10403 10400 10397 10396 10394 10390 10387 10384 10383 10382 10381
10630 10627 10624 10622 10619 10616 10614 10611 10608 10605 10602 10599 10596 10593 10590 10587 10585 10582 10579 10576 10573 10570 10568 10565 10562 10560 10557 10555 10553 10550 10547 10544 10540 10536 10532 10528 10524 10520 10517 10514 10511 10507 10502 10497 10492 10487 10481 10475 10471 10470 10467 10463 10459 10456 10456 10456 10456 10454 10450 10447 10443 10441 10438 10436 10433 10430 10428 10427 10426 10416 10400 10399 10406 10403 10400 10401 10398 10394 10392 10389 10387 10385 10382 10378 10375 10371 10369 10367
10629 10627 10624 10621 10619 10616 10613 10610 10608 10605 10602 10598 10595 10593 10590 10586 10583 10581 10578 10575 10572 10569 10566 10563 10561 10557 10554 10552 10550 10547 10545 10541 10538 10534 10530 10526 10522 10519 10515 10511 10508 10504 10500 10496 10491 10486 10480 10474 10468 10463 10461 10458 10454 10450 10448 10449 10450 10449 10447 10444 10440 10437 10434 10431 10429 10425 10421 10419 10420 10418 10402 10391 10397 10398 10392 10391 10389 10385 10383 10380 10377 10375 10372 10369 10365 10361 10357 10354
10628 10626 10623 10621 10618 10615 10612 10610 10607 10604 10601 10598 10595 10592 10589 10585 10582 10579 10576 10574 10571 10568 10565 10562 10559 10556 10552 10549 10546 10544 10541 10538 10535 10531 10528 10524 10520 10516 10513 10509 10506 10502 10498 10493 10488 10484 10479 10474 10469 10463 10459 10456 10451 10447 10442 10441 10443 10444 10442 10439 10435 10433 10429 10427 10425 10420 10416 10412 10411 10414 10406 10391 10388 10390 10387 10383 10381 10377 10374 10371 10368 10365 10362 10359 10356 10351 10346 10341
10627 10625 10622 10619 10617 10614 10612 10609 10606 10603 10600 10597 10594 10591 10588 10584 10581 10578 10575 10572 10569 10567 10564 10560 10557 10554 10551 10547 10544 10541 10538 10535 10532 10528 10524 10521 10518 10514 10511 10507 10504 10501 10496 10491 10486 10482 10477 10472 10467 10462 10458 10454 10450 10445 10438 10433 10435 10437 10436 10432 10428 10427 10424 10421 10420 10416 10410 10405 10401 10404 10403 10391 10382 10382 10381 10378 10373 10369 10366 10362 10359 10356 10352 10348 10345 10340 10334 10329
10626 10624 10621 10618 10616 10613 10611 10608 10605 10602 10599 10596 10593 10590 10587 10583 10580 10576 10573 10570 10567 10564 10562 10559 10555 10552 10549 10545 10541 10538 10536 10532 10529 10525 10521 10518 10514 10511 10508 10505 10502 10499 10495 10491 10485 10480 10477 10473 10468 10461 10456 10452 10448 10444 10437 10429 10427 10429 10429 10426 10422 10420 10418 10414 10412 10411 10406 10398 10393 10394 10395 10386 10375 10371 10371 10370 10366 10360 10356 10352 10349 10346 10342 10337 10333 10328 10322 10317
10625 10622 10620 10617 10614 10612 10609 10606 10603 10601 10598 10595 10592 10589 10586 10582 10579 10575 10571 10568 10565 10562 10559 10556 10553 10550 10547 10543 10539 10535 10532 10529 10526 10523 10519 10516 10512 10508 10506 10502 10499 10496 10493 10489 10484 10478 10473 10469 10466 10460 10456 10452 10448 10443 10439 10431 10425 10424 10423 10419 10415 10412 10411 10407 10404 10403 10400 10393 10385 10385 10388 10380 10366 10360 10360 10359 10356 10351 10346 10341 10337 10333 10329 10324 10319 10314 10309 10305
10623 10621 10618 10615 10612 10610 10607 10604 10602 10599 10596 10593 10590 10587 10584 10581 10577 10574 10570 10566 10563 10560 10557 10554 10551 10548 10544 10541 10537 10533 10530 10526 10523 10520 10516 10513 10509 10505 10503 10500 10497 10493 10490 10486 10481 10475 10469 10463 10460 10454 10449 10447 10443 10437 10434 10428 10422 10420 10418 10414 10408 10403 10401 10399 10396 10393 10392 10388 10378 10374 10378 10374 10360 10352 10352 10348 10344 10341 10336 10330 10325 10320 10315 10308 10303 10298 10294 10291
10621 10618 10616 10613 10611 10608 10605 10602 10599 10597 10594 10591 10588 10585 10582 10579 10575 10572 10568 10565 10561 10557 10554 10551 10548 10545 10542 10539 10535 10531 10528 10524 10520 10517 10512 10509 10506 10502 10499 10496 10494 10490 10486 10482 10478 10473 10467 10460 10456 10449 10441 10438 10434 10428 10423 10419 10413 10411 10410 10406 10400 10395 10391 10388 10385 10382 10380 10380 10373 10363 10363 10363 10352 10345 10343 10339 10335 10331 10325 10320 10315 10309 10303 10295 10288 10281 10278 10275
10617 10615 10613 10611 10609 10606 10602 10599 10597 10594 10591 10588 10586 10583 10580 10576 10573 10570 10566 10563 10559 10555 10552 10549 10546 10543 10539 10536 10532 10528 10525 10521 10517 10514 10510 10505 10502 10498 10495 10492 10489 10486 10482 10478 10474 10470 10465 10458 10453 10447 10439 10433 10430 10423 10417 10411 10404 10402 10401 10398 10392 10387 10382 10378 10375 10371 10367 10366 10364 10356 10350 10347 10342 10335 10331 10325 10322 10319 10314 10307 10302 10296 10289 10282 10275 10269 10264 10259
10614 10612 10610 10608 10606 10603 10600 10597 10594 10591 10588 10585 10582 10580 10576 10573 10570 10567 10564 10560 10557 10553 10550 10546 10543 10540 10537 10534 10530 10526 10522 10518 10514 10510 10506 10501 10497 10493 10490 10487 10484 10480 10477 10473 10469 10465 10461 10456 10451 10445 10436 10430 10426 10420 10413 10406 10399 10394 10392 10391 10386 10379 10374 10370 10365 10361 10355 10351 10350 10347 10340 10334 10330 10325 10319 10312 10307 10305 10301 10294 10287 10279 10272 10265 10259 10255 10250 10245
10611 10608 10606 10604 10602 10600 10597 10594 10591 10588 10585 10582 10579 10576 10573 10570 10567 10564 10561 10558 10555 10551 10548 10544 10540 10538 10535 10531 10528 10523 10519 10516 10512 10508 10503 10498 10493 10488 10485 10482 10480 10475 10471 10468 10463 10459 10455 10450 10447 10442 10434 10426 10423 10417 10410 10402 10394 10388 10384 10381 10376 10370 10364 10360 10355 10350 10344 10338 10334 10331 10328 10322 10317 10314 10309 10301 10293 10288 10285 10279 10272 10263 10253 10247 10242 10238 10233 10228
10608 10605 10603 10600 10598 10596 10594 10591 10589 10585 10582 10579 10576 10573 10570 10567 10563 10560 10557 10555 10552 10548 10545 10542 10538 10535 10532 10529 10525 10521 10516 10512 10509 10505 10501 10495 10490 10486 10481 10478 10475 10471 10466 10462 10458 10453 10449 10444 10440 10437 10430 10422 10417 10412 10406 10397 10389 10382 10378 10373 10368 10362 10355 10349 10344 10338 10332 10328 10324 10318 10314 10310 10305 10300 10295 10288 10279 10273 10267 10262 10257 10249 10239 10232 10226 10221 10214 10209
10604 10602 10599 10597 10595 10592 10590 10588 10585 10582 10579 10576 10573 10570 10566 10563 10560 10557 10554 10551 10548 10545 10542 10539 10535 10532 10529 10526 10521 10517 10513 10509 10505 10501 10497 10492 10487 10481 10477 10474 10471 10467 10463 10459 10454 10449 10445 10440 10434 10431 10426 10418 10412 10407 10402 10395 10386 10379 10376 10370 10362 10356 10350 10343 10337 10330 10322 10318 10316 10310 10303 10298 10292 10286 10282 10277 10270 10263 10255 10247 10239 10232 10226 10219 10212 10204 10196 10190
10601 10598 10596 10593 10591 10588 10586 10584 10581 10578 10575 10572 10569 10566 10563 10559 10556 10553 10550 10546 10544 10541 10538 10535 10531 10528 10526 10523 10518 10513 10509 10505 10501 10497 10492 10488 10483 10477 10473 10468 10465 10462 10458 10454 10450 10445 10441 10437 10432 10427 10423 10416 10409 10403 10398 10391 10383 10376 10372 10367 10358 10351 10345 10338 10331 10323 10312 10304 10301 10296 10290 10285 10280 10274 10270 10267 10261 10253 10244 10233 10222 10213 10208 10204 10197 10187 10178 10172